Погода в Пущино

Россия / Рязанская область     54°33′07″N   39°42′28″E
темп.,
°C
ветер,
м/с
пор.,
м/с
влажн.,
%
обл.,
%
осадки,
мм/ч
давл.,
гПа
погр.,
м
14 мая, пт
пт1400:00+10юв11895 0.0 101810
03:00+11в2289100 0.0 101833
06:00+12в3591100 0.0 1018138
09:00+17юв467688 0.0 1017440
12:00+21юв5864100 0.0 10171194
15:00+22юв686480 0.3 10151598
18:00+19юв5118192 0.8 1014316
21:00+16юв5169085 2.9 1013389
15 мая, сб
сб1500:00+15ююв339199 0.8 101340
03:00+14юв349697 2.8 101268
06:00+16юв379597 0.8 1011169
09:00+19ююв488766 0.9 1010343
12:00+18ю5108971 6.2 1011318
15:00+20ююз61180100 7.2 1011787
18:00+20ююз5978100 1.2 1011563
21:00+16ююз4888100 1.3 1012137
16 мая, вс
вс1600:00+14ююз488940 0.0 1013137
03:00+12юз369184 0.0 1013104
06:00+13ююз389154 0.0 1014186
09:00+18юз587664 0.0 1014631
12:00+21юз46604 0.0 10151251
15:00+22ююз575739 0.0 10142042
18:00+20юз35730 0.4 1014256
21:00+16ююз1179100 0.4 101411
17 мая, пн
пн1700:00+16всв1181100 0.0 101411
03:00+14в238887 0.0 101523
06:00+15в248747 0.0 101589
09:00+20в467548 0.0 1014408
12:00+24вюв676499 0.0 1013883
15:00+26юв56615 0.0 10121006
18:00+24юв4872100 0.0 1011282
21:00+18юв4118249 0.0 1011178
18 мая, вт
вт1800:00+16юв49855 0.0 1011136
03:00+15вюв5148231 0.0 1010231
06:00+15юв5137848 0.0 1010261
09:00+20ююв6116686 0.0 1010387
12:00+24юв7125848 0.0 1009928
15:00+25ююв711587 0.0 10091404
18:00+22ю61271100 0.0 1009513
21:00+17ююз4891100 0.3 1010233